{"data":{"norad_id":29272,"epoch":"2026-05-25T04:20:58.775712Z","epoch_age_seconds":52705,"freshness":"FRESH","line1":"1 29272U 06033A   26145.18123583 -.00000347  00000+0  00000+0 0  9996","line2":"2 29272   0.0213  40.1998 0001970 358.9576  36.8472  1.00272766 47508","mean_motion":1.00272766,"eccentricity":0.000197,"inclination_deg":0.0213,"raan_deg":40.1998,"arg_perigee_deg":358.9576,"mean_anomaly_deg":36.8472,"bstar":0,"rev_number":4750,"period_min":1436.0828542418,"perigee_km":35778.013555502,"apogee_km":35794.626351541,"semimajor_km":42164.456953521,"source":"CELESTRAK","updated_at":"2026-05-25T13:38:13.852567Z"}}